User: anonymous   Login
Location: Unspecified
(0.0000°N, 0.0000°E)
Time: 14:14:47
(UTC+00:00)
Language:

HST - Orbit

View from above orbital plane
View from above orbital plane
View from above satellite
View from above satellite

Ground track
Ground track

The orbit data is extracted from the following two-line orbital elements,

1 20580U 90037B   14303.38714120  .00004767  00000-0  30692-3 0  1462
2 20580 028.4697 228.0463 0002993 294.7248 012.8548 15.06048498145112
Epoch (UTC): 30 October 2014 09:17:29
Eccentricity: 0.0002993
inclination: 28.4697°
perigee height: 546 km
apogee height: 550 km
right ascension of ascending node: 228.0463°
argument of perigee: 294.7248°
revolutions per day: 15.06048498
mean anomaly at epoch: 12.8548°
orbit number at epoch: 14511

The dashed part of the orbit path shows where the satellite is in the earth's shadow,  

DLR